Tracking 20241 objects as of 26-Jan-2020
HD Live streaming from Space Station
objects crossing your sky now

COSMOS 2251 DEB

Track COSMOS 2251 DEB now!
10-day predictions


NORAD ID: 38061
Int'l Code: 1993-036BRT
Perigee: 469.3 km
Apogee: 481.7 km
Inclination: 73.9 °
Period: 94.0 minutes
Semi major axis: 6846 km
RCS: 0.052 m2 (small)
Launch date: June 16, 1993
Source: Commonwealth of Independent States (former USSR) (CIS)
Launch site: PLESETSK MISSILE AND SPACE COMPLEX (PKMTR)

Note: This is SATELLITE DEBRIS
aabbcc
Your satellite tracking list
Your tracking list is empty




NASA's NSSDC Master Catalog

Two Line Element Set (TLE):
1 38061U 93036BRT 20025.86243710  .00033963  00000-0  10772-2 0  9992
2 38061  73.9447 211.0422 0009071  97.1001 263.1235 15.32500011452697
Source of the keplerian elements: AFSPC